Lid_Strength_Index
5 5 4 2 1 1 1 2 2 2 2 2 2 3 2 2 2 3 5 5 7 10 9 7 7 8 8 8 10 8 8 9 9 12 13 13 14 13 13 12 14 16 16 16 14 17 18 10 11 14 12 10 11 10
6 4 2 2 1 1 1 2 2 3 3 3 3 3 3 2 2 3 6 4 4 8 8 6 6 5 5 5 7 7 9 10 8 11 11 11 13 12 13 16 10 15 14 15 15 14 11 9 11 10 10 11 10 10
4 3 2 2 2 2 2 2 2 2 3 3 3 2 2 2 2 3 5 5 6 8 8 9 7 5 3 4 3 8 6 5 8 8 10 10 12 11 14 13 12 11 11 14 14 12 12 10 10 10 10 11 9 9
4 2 2 2 2 2 2 2 2 2 3 3 3 3 2 2 3 2 5 5 6 8 11 10 5 6 4 4 4 4 6 5 6 8 11 12 13 11 13 12 13 12 12 15 15 14 12 11 11 11 11 10 9 8
3 2 2 2 2 2 2 2 2 2 2 2 2 2 3 3 3 3 4 5 5 8 11 10 8 6 5 5 5 5 7 7 9 10 9 11 10 11 12 13 13 10 12 15 17 14 14 14 11 11 11 11 9 9
2 2 2 2 2 2 2 2 2 1 2 2 2 3 3 3 2 3 6 5 5 7 10 12 8 8 7 7 7 8 8 9 8 9 10 10 8 11 14 16 12 9 10 10 12 11 11 11 11 11 11 10 9 9
2 2 2 2 2 2 2 2 2 2 2 2 3 3 3 3 5 7 8 6 4 6 10 12 11 8 8 9 9 9 8 9 10 11 12 12 12 11 13 15 11 9 8 7 7 9 11 11 12 10 10 9 8 8
2 2 2 2 2 2 2 2 2 2 2 2 3 3 3 4 5 6 6 4 5 9 9 12 11 10 7 9 10 8 11 10 11 11 11 12 12 13 15 11 9 9 8 8 7 7 9 9 9 10 10 10 9 8
2 2 2 2 2 2 2 2 1 2 3 3 2 3 5 6 7 7 3 3 6 8 10 10 12 12 8 10 10 9 9 11 10 12 13 13 14 15 12 11 10 9 9 8 7 7 9 9 9 10 10 10 10 9
2 2 3 3 3 3 3 2 2 2 2 3 5 6 7 6 2 3 6 7 8 8 10 10 8 11 8 8 9 9 8 10 12 11 11 14 14 9 8 8 8 8 8 8 9 9 8 9 9 10 9 9 9 8
2 2 2 2 3 3 3 2 2 2 3 5 6 6 6 2 6 6 8 10 9 11 10 10 9 10 7 9 9 8 10 9 13 12 13 14 14 10 8 7 7 7 7 8 8 7 7 7 6 7 7 6 7 7
2 2 3 2 2 2 2 2 2 5 4 5 6 4 6 7 7 10 10 9 10 11 8 8 8 8 8 8 9 8 10 10 14 9 11 13 11 8 8 8 6 6 7 8 8 8 7 8 6 6 5 6 7 7
2 3 3 3 3 2 2 2 2 2 3 4 5 7 8 8 11 12 13 12 11 8 7 7 9 7 8 8 9 9 12 12 8 12 13 11 8 8 8 8 7 5 6 7 7 7 7 8 8 8 7 6 5 6
3 3 3 3 3 2 2 2 2 3 5 6 8 12 10 10 9 9 10 9 7 8 7 7 8 8 7 9 9 12 10 9 13 14 13 9 9 8 7 7 8 7 7 7 7 7 8 8 8 8 7 7 7 7
3 2 3 4 2 1 2 2 2 4 4 7 7 12 10 7 8 7 7 7 7 7 7 8 8 8 9 10 9 10 11 14 14 13 10 8 7 7 7 7 7 7 5 6 7 7 7 8 8 8 8 8 8 8
2 2 3 3 2 2 3 3 4 3 4 6 7 9 9 9 8 8 7 8 6 6 7 7 9 10 10 10 12 13 13 14 12 9 8 6 6 7 7 7 7 6 6 4 5 6 7 7 8 8 7 8 8 9
3 4 3 2 2 3 3 2 2 5 5 6 7 7 8 9 8 8 7 7 6 7 9 9 11 12 9 11 12 10 12 11 9 8 7 7 7 7 6 7 7 7 6 7 5 5 5 5 6 7 8 7 7 7
3 1 1 2 2 3 2 3 4 5 6 6 7 7 8 7 8 8 6 6 7 8 8 9 9 11 12 13 12 11 10 10 10 9 7 6 6 6 6 8 8 7 7 7 6 6 6 6 6 8 9 10 10 9
3 3 3 3 3 5 4 4 4 7 6 6 6 6 7 6 6 6 6 6 5 6 7 8 10 11 11 10 10 10 9 10 10 9 7 7 8 8 6 7 8 7 8 8 7 7 7 8 8 8 8 9 10 10
3 3 4 3 3 4 6 5 3 6 8 7 6 6 5 7 7 7 7 7 7 8 9 10 10 9 9 9 8 8 8 8 8 9 9 7 8 7 6 8 8 8 8 8 8 7 8 9 8 8 8 8 9 9
3 3 2 3 5 5 5 6 6 6 6 7 6 6 7 5 6 7 7 6 8 9 9 8 8 7 7 6 6 6 7 7 8 8 8 8 7 8 7 7 8 8 8 8 8 8 9 10 9 8 8 9 8 8
4 2 2 3 4 4 5 4 6 5 6 6 6 6 7 8 8 7 6 8 8 8 6 7 7 6 6 6 5 5 5 5 6 5 5 6 8 8 8 8 7 7 8 8 8 9 9 9 9 9 9 9 8 8
4 3 3 3 6 8 8 4 7 6 8 8 7 8 8 8 6 5 8 7 7 6 6 6 6 5 6 5 4 5 5 5 7 8 8 8 9 8 8 7 7 7 7 7 7 8 8 6 7 8 7 7 7 8
4 4 6 7 7 10 5 7 6 7 7 8 9 10 9 8 6 8 9 7 6 5 5 5 6 6 5 5 6 6 6 7 7 8 8 8 9 9 7 7 7 7 7 7 7 6 7 7 7 8 7 7 7 8
7 7 7 11 6 8 8 8 8 9 10 9 10 10 9 7 10 10 10 8 6 5 5 5 6 6 6 7 6 7 7 7 8 9 9 8 9 8 8 8 8 8 7 6 7 7 7 6 6 7 7 7 7 7
12 7 9 8 8 8 9 10 9 10 9 9 9 8 8 9 10 11 9 7 6 5 5 5 6 7 6 5 7 7 7 7 7 9 8 8 8 8 8 9 9 9 7 7 7 6 6 5 5 6 6 6 6 6
11 8 6 5 6 6 8 8 7 9 10 10 9 8 9 11 11 9 6 5 5 4 4 5 5 6 6 6 6 7 7 6 7 7 7 7 7 7 7 8 8 8 7 6 6 6 6 5 5 6 6 7 7 6
7 7 9 7 7 6 8 9 9 10 9 7 8 10 10 10 9 6 5 3 3 3 4 5 4 4 4 5 4 5 6 6 5 5 5 5 5 5 6 7 6 5 6 6 5 5 5 5 6 5 5 7 7 6
7 6 6 8 7 8 8 8 8 7 6 7 9 9 8 6 5 4 4 4 3 4 5 5 4 4 5 5 6 5 4 5 6 7 7 8 7 6 5 5 5 5 5 6 4 5 5 5 5 5 5 5 6 6
7 5 7 7 8 9 7 6 6 5 6 5 5 6 5 5 4 2 3 4 4 4 5 5 7 7 7 6 6 7 7 6 7 7 8 8 8 6 4 4 5 5 4 4 4 4 3 3 4 4 5 6 6 7
5 6 7 7 8 6 5 5 4 5 5 5 5 6 6 5 4 3 4 5 5 6 6 7 7 7 7 8 8 8 8 7 7 6 6 6 6 5 5 4 4 4 3 3 4 5 4 4 5 5 5 6 6 7
6 7 7 8 7 5 5 5 5 6 6 7 7 6 5 6 7 5 5 5 7 7 6 7 8 8 6 7 7 7 7 8 8 7 8 8 7 7 6 6 4 3 3 3 3 5 4 4 6 6 6 5 6 6
6 6 6 7 7 7 6 6 6 7 7 7 7 6 6 6 7 5 4 5 6 7 7 7 6 6 7 7 7 8 8 9 8 8 7 7 7 7 8 7 6 5 5 5 5 6 5 5 6 5 6 6 6 7